Flight Track Log - Related Links

Times and Time Zones

All times are in EDT time to prevent confusion due to time zone crossing. See the FLG3861 flight status page for this flight to view local times or setup timezone preferences in your user account.

Time Position Orientation Groundspeed Altitude Reporting Facility
EDT Latitude Longitude Course Direction KTS MPH feet Rate Location/Type
09:58PM 42.2017 -83.3553 126° Southeast 159 183 1,500  Level Cleveland Center
09:59PM 42.1736 -83.3036 126° Southeast 228 262 3,600 1,835 Climbing Cleveland Center
10:00PM 42.1489 -83.2047 109° East 306 352 5,200 1,930 Climbing Cleveland Center
10:01PM 42.1739 -83.1161 69° East 312 359 7,300 2,743 Climbing Cleveland Center
10:02PM 42.2372 -82.9728 59° Northeast 331 381 11,600 2,329 Climbing Cleveland Center
10:03PM 42.2750 -82.8619 65° Northeast 325 374 13,200 1,587 Climbing Cleveland Center
10:05PM 42.2861 -82.7247 84° East 332 382 14,800 1,550 Climbing Cleveland Center
10:05PM 42.2969 -82.5792 84° East 363 418 16,300 1,412 Climbing Cleveland Center
10:06PM 42.3014 -82.4303 88° East 379 436 17,600 1,100 Climbing Cleveland Center
10:07PM 42.3039 -82.2761 89° East 392 451 18,500 1,000 Climbing Cleveland Center
10:08PM 42.3083 -82.1050 88° East 413 475 19,600 1,050 Climbing Cleveland Center
10:09PM 42.3292 -81.9453 80° East 420 483 20,600 1,000 Climbing Cleveland Center
10:10PM 42.3456 -81.7856 82° East 427 491 21,600 992 Climbing Cleveland Center
10:12PM 42.3597 -81.6228 83° East 427 491 22,600 700 Climbing Cleveland Center
10:12PM 42.3611 -81.4597 89° East 422 486 23,000 400 Climbing Cleveland Center
10:14PM 42.3600 -81.3108 91° East 432 497 23,400 850 Climbing Cleveland Center
10:14PM 42.3631 -81.1481 88° East 439 505 24,700 1,261 Climbing Cleveland Center
10:15PM 42.3803 -80.9908 82° East 439 505 25,900 942 Climbing Cleveland Center
10:17PM 42.4017 -80.8361 79° East 422 486 26,600 550 Climbing Cleveland Center
10:17PM 42.4186 -80.6761 82° East 417 480 27,000 202 Climbing Cleveland Center
10:18PM 42.4394 -80.5128 80° East 434 499 27,000  Level Cleveland Center
10:20PM 42.4453 -80.3272 87° East 445 512 27,000  Level Cleveland Center
10:20PM 42.4117 -80.1669 106° East 434 499 27,000  Level Cleveland Center
10:21PM 42.3547 -80.0242 118° Southeast 434 499 27,000  Level Cleveland Center
10:23PM 42.2956 -79.8731 118° Southeast 440 506 27,000  Level Cleveland Center
10:23PM 42.2608 -79.7050 106° East 452 520 27,000  Level Cleveland Center
10:24PM 42.2492 -79.5314 95° East 458 527 27,000  Level Cleveland Center
10:25PM 42.2472 -79.3547 91° East 464 534 27,000  Level Cleveland Center
10:27PM 42.2494 -79.1750 89° East 464 534 27,000  Level Cleveland Center
10:28PM 42.2492 -79.0011 90° East 464 534 27,000  Level Cleveland Center
10:28PM 42.2508 -78.8217 89° East 464 534 27,000  Level Cleveland Center
10:29PM 42.2481 -78.6450 91° East 464 534 27,000  Level Cleveland Center
10:31PM 42.2492 -78.4708 89° East 464 534 27,000  Level Cleveland Center
10:32PM 42.2478 -78.2972 91° East 464 534 27,000  Level Cleveland Center
10:32PM 42.2464 -78.1206 91° East 464 534 27,000 -560 Level Cleveland Center
10:35PM 42.2403 -77.7650 91° East 474 545 25,300 -1,148 Descending New York Center
10:36PM 42.2389 -77.6108 91° East 474 545 23,500 -2,450 Descending New York Center
10:37PM 42.2375 -77.4508 91° East 454 522 20,400 -2,750 Descending New York Center
10:38PM 42.2358 -77.2939 91° East 434 499 18,000 -1,686 Descending New York Center
10:39PM 42.2331 -77.1508 91° East 404 465 17,000 -550 Descending New York Center
10:40PM 42.2322 -77.0106 90° East 384 442 16,900 -1,311 Descending New York Center
10:41PM 42.2294 -76.8619 91° East 384 442 14,400 -2,950 Descending New York Center
10:42PM 42.2514 -76.7183 78° East 372 428 11,000 -2,550 Descending New York Center
10:43PM 42.2736 -76.6025 75° East 346 398 9,300 -1,050 Descending New York Center
10:44PM 42.2933 -76.4950 76° East 314 361 8,900 -800 Descending New York Center
10:45PM 42.3119 -76.4097 74° East 286 329 7,700 -1,550 Descending New York Center
10:46PM 42.3292 -76.3131 76° East 265 305 5,800 -1,800 Descending New York Center
10:47PM 42.3458 -76.2219 76° East 255 293 4,100 -850 Descending New York Center
10:48PM 42.3581 -76.1358 79° East 243 280 4,100 -50 Level New York Center
10:49PM 42.3211 -76.0767 130° Southeast 197 227 4,000 -550 Descending New York Center
10:50PM 42.2733 -76.0308 145° Southeast 190 219 3,000 -1,000 Descending New York Center
10:51PM 42.2331 -75.9997 150° Southeast 185 213 2,000 3,000 Descending New York Center
10:52PM 42.1897 -75.9431 136° Southeast 185 213 9,000 3,500 Climbing New York Center
10:53PM 42.1500 -75.8981 140° Southeast 185 213 9,000  Level New York Center
10:54PM 42.1103 -75.8528 140° Southeast 185 213 9,000  Level New York Center
10:55PM 42.0706 -75.8081 140° Southeast 185 213 9,000  Level New York Center

Login

Don't have an account? Register now (free) for customized features, flight alerts, and more!